JA3VQW-13 Weather Reports


time (UTC)temp
C
wind
direction
speed
KPH
gust
KPH
rain 1hr
cm
rain 24hr
cm
rain mn
cm
humidity
%
barometer
mb
20260904120757 23 225 0.0 0.0 0.00 1.45 1.45 87 1002.0
20260904113757 23 225 0.0 0.0 0.00 1.45 1.45 85 1002.0
20260904110757 23 225 0.0 0.0 0.00 1.45 1.45 82 1002.0
20260904103757 23 225 0.0 0.0 0.00 1.45 1.45 83 1001.0
20260904100757 23 225 0.0 0.0 0.00 1.45 1.45 79 1001.0
20260904093757 23 135 0.0 0.0 0.00 1.45 1.45 80 1001.0
20260904090756 23 135 0.0 0.0 0.10 1.55 1.45 83 1001.0
20260904083759 23 135 0.0 0.0 0.10 1.65 1.45 83 1001.0
20260904080758 23 315 0.0 0.0 0.00 1.65 1.37 84 1002.0
20260904075012 24 315 0.0 0.0 0.10 1.65 1.37 86 1001.0
20260904073759 24 315 0.0 0.0 0.10 1.65 1.37 86 1002.0
20260904070758 24 315 0.0 0.0 0.10 1.65 1.37 83 1002.0
20260904063759 23 315 0.0 0.0 0.00 1.55 1.27 77 1002.0
20260904060758 24 135 0.0 0.0 0.00 1.55 1.27 72 1002.0
20260904053759 25 135 0.0 0.0 0.00 1.55 1.27 74 1001.0
20260904050758 25 135 0.0 0.0 0.00 1.65 1.27 72 1002.0
20260904043758 25 135 0.0 0.0 0.00 1.65 1.27 73 1001.0
20260904040757 25 135 0.0 0.0 0.00 1.65 1.27 67 1002.0
20260904033758 25 135 0.0 0.0 0.00 1.65 1.27 63 1002.0
20260904030757 25 135 0.0 0.0 0.00 1.65 1.27 67 1002.0
20260904023758 25 135 0.0 0.0 0.00 1.65 1.27 68 1002.0
20260904020757 25 135 0.0 0.0 0.10 1.65 1.27 71 1002.0
20260904013758 25 270 0.0 0.0 0.10 1.65 1.27 83 1002.0
20260904010759 24 270 0.0 0.0 0.00 1.55 1.17 88 1002.0
20260904005013 23 270 0.0 0.0 0.00 1.55 1.17 89 1002.0
20260904003758 23 270 0.0 0.0 0.00 1.55 1.17 90 1002.0
20260904002012 23 270 0.0 0.0 0.23 1.55 1.17 92 1002.0
20260904000757 23 135 0.0 0.0 0.33 1.55 1.17 93 1003.0
20260903233757 23 135 0.0 0.0 0.43 1.55 1.17 93 1002.0
20260903230757 23 135 0.0 0.0 0.23 1.22 0.84 93 1003.0
20260903223758 23 135 0.0 0.0 0.33 1.12 0.74 91 1003.0
20260903220758 23 135 0.0 0.0 0.30 0.99 0.61 89 1003.0
20260903213757 23 135 0.0 0.0 0.20 0.79 0.41 87 1003.0
20260903210756 23 135 0.0 4.8 0.10 0.71 0.30 87 1003.0
20260903210511 23 135 0.0 8.0 0.10 0.71 0.30 87 1003.0
20260903205013 23 135 3.2 4.8 0.00 0.61 0.20 88 1003.0
20260903203757 23 180 0.0 0.0 0.00 0.61 0.20 88 1002.0
20260903200758 23 180 0.0 0.0 0.10 0.61 0.20 89 1002.0
20260903193756 23 180 0.0 0.0 0.10 0.61 0.20 89 1001.0
20260903190757 23 180 0.0 0.0 0.10 0.51 0.10 87 1002.0
20260903183758 23 180 0.0 0.0 0.10 0.51 0.10 86 1002.0
20260903180756 23 180 0.0 0.0 0.00 0.41 0.00 86 1002.0
20260903173757 24 180 0.0 0.0 0.00 0.41 0.00 86 1002.0
20260903172011 24 180 0.0 0.0 0.00 0.41 0.00 86 1002.0
20260903170756 24 180 0.0 0.0 0.00 0.41 0.00 85 1002.0
20260903163757 24 180 0.0 0.0 0.00 0.41 0.00 84 1002.0
20260903160757 24 180 0.0 0.0 0.00 0.41 0.00 83 1002.0
20260903153800 24 180 0.0 0.0 0.00 0.41 0.00 80 1002.0
20260903150800 24 180 0.0 0.0 0.00 0.41 0.00 76 1002.0
20260903145015 24 180 0.0 0.0 0.00 0.41 0.41 77 1002.0
20260903143800 24 180 0.0 0.0 0.00 0.41 0.41 78 1003.0
20260903140800 24 180 0.0 0.0 0.00 0.41 0.41 79 1003.0
20260903133801 24 180 0.0 0.0 0.00 0.41 0.41 76 1003.0
20260903130801 24 180 0.0 0.0 0.00 3.58 0.41 75 1002.0
20260903123800 24 180 0.0 0.0 0.00 4.75 0.41 75 1003.0